GFSNGP_sfc_thetae_021.txt.gz
Theta_e
294 296 298 299 300 302 301 303 300 302 302 307 313 314 317 320 321 322 322 323 325 325 327 328 328 327 325 326 327 329 328 331 334 335 335 334 334 334 335 332 335 331 333 332
290 295 298 298 300 301 303 303 303 304 303 310 314 314 314 316 319 321 322 323 325 326 327 327 327 325 325 326 327 328 328 331 332 333 332 333 334 334 335 334 334 333 333 331
286 294 296 293 299 301 302 305 304 300 305 310 309 310 313 316 317 320 323 324 325 326 328 328 327 326 324 326 327 327 329 331 331 331 331 331 332 332 333 334 336 335 334 333
289 292 286 298 305 304 303 305 307 306 307 309 311 314 314 316 319 318 323 325 326 327 329 330 328 326 326 326 326 326 329 330 331 331 331 330 331 332 334 339 336 337 335 334
286 289 296 298 303 302 302 302 308 307 307 311 312 312 313 319 320 323 326 328 329 330 331 331 327 326 325 325 324 325 328 330 330 331 331 332 333 334 338 338 338 335 335 334
291 288 285 296 305 308 308 299 308 309 309 310 311 305 313 319 321 323 329 329 330 331 331 331 328 327 325 324 323 324 327 330 331 331 332 332 335 336 337 339 337 335 333 334
290 292 295 300 306 307 297 298 309 310 311 311 310 314 316 319 320 323 326 329 332 331 331 331 328 327 324 325 322 325 328 331 332 334 333 335 336 337 338 337 336 333 332 334
293 291 288 303 305 301 304 309 310 310 311 310 313 315 317 319 321 322 324 328 331 330 331 332 328 326 324 324 325 326 327 330 332 334 333 334 335 335 336 338 336 332 332 330
291 288 297 302 302 306 308 309 309 310 311 313 314 315 318 320 322 324 324 328 330 331 331 331 329 327 324 326 325 325 326 329 332 334 333 335 334 334 332 335 331 332 331 327
293 294 297 300 303 304 307 307 311 311 312 313 314 316 319 322 323 324 326 326 329 330 330 330 329 327 327 327 325 324 326 328 331 332 332 334 332 330 330 329 329 329 328 328
291 294 300 301 303 304 306 309 310 312 312 312 313 316 319 321 325 326 327 328 329 330 331 331 329 327 327 327 325 325 327 327 329 331 332 332 332 328 327 333 324 328 328 328
290 296 297 300 304 306 306 307 309 310 311 314 314 315 318 320 325 328 328 329 327 330 331 332 329 328 326 327 325 327 328 326 326 327 331 330 329 329 298 303 302 304 303 314
296 301 303 305 305 307 306 309 310 310 312 313 315 315 318 318 322 322 328 329 327 329 331 332 330 328 326 326 326 327 330 329 325 321 327 330 329 329 327 317 302 304 301 301
303 302 299 302 302 306 308 309 310 311 313 315 315 316 316 317 319 324 327 329 330 328 330 332 331 328 327 327 325 327 332 309 326 323 325 324 327 328 329 327 325 325 305 308
301 303 304 306 307 306 308 309 309 309 311 312 315 316 316 316 317 321 327 329 330 328 328 331 330 329 328 328 327 326 329 325 326 324 324 321 325 324 325 326 327 325 325 307
303 303 304 305 305 305 305 306 308 308 310 310 312 314 315 317 318 320 324 330 329 326 328 330 331 331 329 330 331 328 330 314 317 325 323 323 324 324 323 323 323 324 324 324
299 301 303 303 302 305 305 307 308 308 309 310 311 313 314 317 317 318 321 325 331 331 330 330 331 332 330 331 334 327 328 327 317 324 323 322 322 323 323 323 322 322 323 323
302 303 304 305 304 304 305 307 309 309 310 311 311 312 313 314 316 317 319 323 331 331 332 333 332 333 331 331 335 330 330 329 326 324 324 322 322 322 323 323 322 323 323 320
305 303 305 306 307 306 306 306 307 309 311 312 312 311 312 314 316 318 319 322 328 330 332 336 314 324 334 329 327 331 330 329 328 327 326 316 323 322 322 323 322 323 323 323
303 304 305 304 306 307 304 306 307 308 309 312 313 311 311 312 315 317 318 320 326 325 328 333 332 335 334 329 308 331 330 330 329 328 327 325 326 326 324 312 321 322 324 324
303 305 305 307 305 304 304 305 304 305 308 308 311 311 312 313 314 315 317 317 325 320 319 316 331 334 332 321 322 329 330 332 332 331 328 327 327 327 328 324 324 323 325 325
305 305 305 305 306 306 306 305 305 305 306 307 308 311 313 313 314 314 317 319 321 303 314 323 324 304 316 299 330 330 328 331 331 332 331 330 330 330 330 330 327 327 327 328
305 305 305 305 305 306 306 307 305 305 303 303 304 306 308 311 314 312 312 319 321 309 320 320 298 292 292 326 331 331 330 329 330 329 331 331 332 330 331 330 331 331 332 332
305 305 305 306 306 306 304 306 306 304 304 304 304 304 303 303 306 313 317 309 301 304 317 316 306 291 289 327 329 331 330 329 330 330 331 310 330 329 329 330 329 330 331 327
305 305 305 304 305 304 306 305 305 306 305 303 302 303 302 304 302 305 309 312 303 308 319 303 294 292 318 321 327 329 329 332 332 331 332 332 330 330 330 330 329 327 327 327
305 305 305 306 305 305 306 305 304 304 303 302 301 302 302 302 302 301 302 301 309 307 316 317 318 317 321 324 326 328 329 330 328 331 328 332 332 332 330 329 329 325 328 330
304 301 304 305 304 305 304 304 302 302 302 303 301 301 301 301 298 298 295 297 301 307 313 317 318 312 317 318 321 325 328 329 318 330 331 331 332 332 332 332 332 331 332 331

GFSNGP_sfc_thetae_024.txt.gz
Theta_e
291 292 294 295 297 298 298 301 297 301 302 306 312 314 319 322 322 321 322 323 325 326 327 329 330 328 326 327 328 331 331 334 334 336 335 334 333 334 336 334 331 332 332 332
289 292 292 291 297 299 300 301 302 303 304 313 315 317 318 320 320 320 321 323 324 326 328 329 328 326 326 327 327 330 332 332 333 332 332 332 333 333 335 334 333 332 333 331
285 291 290 289 297 299 301 304 304 301 308 314 312 313 317 319 321 321 322 323 325 326 328 329 328 327 326 327 328 328 331 331 332 332 332 332 333 332 334 334 332 332 332 333
287 289 281 297 304 303 302 306 307 308 310 312 312 315 316 318 319 323 323 325 326 328 330 330 328 326 328 327 326 327 331 329 330 329 329 330 330 330 333 334 333 333 333 333
286 286 290 296 301 301 301 302 307 307 309 310 312 317 316 319 320 322 327 328 328 331 332 331 328 327 326 326 325 326 328 328 329 330 330 331 332 332 333 332 330 331 333 333
288 283 286 297 303 307 307 298 308 310 310 310 311 306 310 318 320 322 326 332 329 331 333 331 329 328 326 325 324 326 328 329 330 331 332 332 335 335 335 335 335 334 331 331
286 285 290 299 300 308 295 297 310 311 311 311 310 313 317 319 321 324 326 329 332 332 331 331 330 328 325 325 323 327 329 331 332 333 332 335 337 336 337 334 334 332 331 331
290 286 284 299 301 297 301 310 310 310 311 312 314 316 318 319 320 322 324 327 331 331 332 332 330 327 325 326 326 327 329 330 333 335 333 335 337 338 336 334 332 331 329 329
291 287 295 301 301 304 306 307 309 310 312 313 315 316 318 320 321 323 324 326 330 331 333 331 329 327 326 328 327 327 329 333 333 334 334 336 335 335 333 334 331 329 328 326
292 294 296 300 304 305 307 307 310 312 313 314 314 316 318 321 323 324 326 325 329 332 332 330 329 328 329 328 326 326 329 333 333 332 333 334 333 334 332 331 330 329 327 325
292 295 299 300 302 303 306 308 309 311 313 313 314 315 317 319 323 326 326 327 329 331 332 331 329 328 329 327 326 327 330 332 333 333 333 333 332 328 331 326 323 329 330 329
290 298 298 298 302 305 305 307 309 309 311 314 314 314 317 318 321 324 327 329 328 332 334 332 330 328 327 327 327 329 328 330 331 331 332 331 329 325 298 303 300 299 301 324
297 302 302 303 305 305 305 308 309 310 312 313 315 315 316 316 319 319 328 328 329 329 332 333 331 328 327 327 326 329 328 329 328 326 330 330 328 327 325 312 299 299 301 306
302 303 300 302 301 305 307 308 310 311 312 313 314 316 317 316 318 320 324 329 330 330 330 333 332 329 328 327 326 329 329 312 328 326 330 330 329 330 328 326 324 322 305 309
303 303 304 305 306 306 307 308 307 309 310 311 313 314 315 315 316 318 322 326 332 330 328 330 332 330 330 327 327 328 327 326 326 326 327 324 330 329 329 328 326 324 316 308
302 302 303 304 303 304 305 306 305 307 309 310 311 312 313 316 318 318 320 323 326 329 331 329 331 333 331 328 328 328 329 314 317 326 323 325 324 325 326 327 327 325 322 319
299 299 302 302 303 304 305 306 307 307 308 310 311 312 312 314 316 318 318 322 326 331 333 334 333 334 332 329 330 327 328 326 315 324 323 323 323 324 323 323 326 325 325 321
304 304 305 304 304 304 304 305 307 308 308 310 311 312 312 313 313 318 319 322 330 332 331 334 329 330 335 330 331 327 327 327 325 323 324 322 323 323 324 324 323 323 324 319
305 304 304 304 304 304 304 303 304 306 308 310 311 312 312 313 314 315 320 320 325 323 325 332 310 326 337 330 325 328 327 328 326 324 324 316 321 322 323 324 323 323 323 320
304 304 304 304 305 305 303 304 305 307 307 309 310 311 312 312 314 314 317 319 324 321 324 327 332 328 333 325 308 330 329 329 329 325 324 324 323 322 322 313 322 323 323 323
304 305 304 304 304 305 305 304 303 303 304 305 306 307 309 314 314 314 315 315 321 321 320 314 321 317 321 312 319 329 330 330 331 328 326 324 325 323 322 322 321 322 323 323
305 304 304 304 304 304 305 304 304 304 304 304 304 305 306 307 309 312 317 313 315 301 316 320 319 299 307 296 328 329 330 331 330 332 329 327 325 326 325 323 323 322 323 324
305 305 304 304 304 304 305 305 305 304 303 302 302 302 302 303 305 305 304 310 312 303 311 320 297 290 291 317 326 330 331 331 330 330 331 330 328 325 327 326 325 325 324 323
305 305 305 305 306 304 304 304 304 304 304 303 302 303 302 300 302 303 305 301 296 297 306 310 304 291 288 316 319 327 329 331 332 330 329 311 329 329 327 328 328 327 326 319
307 305 305 304 303 303 305 305 305 304 305 304 302 303 302 303 300 299 301 302 295 300 306 302 296 291 312 317 317 321 326 329 330 328 330 331 330 330 329 330 329 330 331 329
306 305 306 305 304 304 304 304 302 302 302 301 302 301 301 302 301 300 299 296 298 295 301 305 309 311 317 318 317 321 328 328 327 330 325 331 331 333 334 333 333 333 333 332
305 300 305 305 304 305 304 303 303 300 300 300 300 301 300 300 299 298 294 297 296 295 296 298 302 304 309 310 315 319 320 325 314 328 329 328 328 328 327 331 332 332 331 330

GFSNGP_sfc_thetae_030.txt.gz
Theta_e
286 288 289 289 289 290 288 288 285 289 291 295 298 300 308 314 316 317 318 319 320 321 322 323 323 323 322 321 321 323 326 327 325 324 323 323 322 324 325 326 326 327 325 324
284 289 289 288 290 291 290 290 290 291 293 300 300 308 312 314 315 316 318 319 321 321 323 322 322 321 321 321 319 326 328 328 328 325 324 322 322 326 325 325 326 326 323 322
280 288 288 283 289 290 293 293 293 289 295 301 309 312 313 315 316 317 318 319 320 321 323 323 322 320 318 318 324 326 328 329 327 326 324 323 322 322 324 324 325 322 319 318
282 285 277 291 297 298 298 295 301 304 305 307 310 311 314 315 317 317 319 320 321 322 323 322 320 317 317 323 325 326 327 328 327 328 324 323 322 321 320 320 325 319 317 315
281 283 288 292 293 294 294 295 304 302 306 309 311 309 311 316 316 316 320 321 322 323 323 320 318 317 319 323 324 324 328 326 326 326 324 324 322 321 320 320 319 319 318 315
284 280 280 288 293 297 298 293 304 303 304 306 308 302 307 314 317 314 318 322 322 323 322 319 316 318 318 320 322 323 325 326 326 325 325 323 322 321 321 324 322 323 319 317
283 283 286 291 293 298 291 294 303 304 304 307 306 308 310 317 318 317 317 321 323 322 320 318 317 318 316 316 319 323 326 325 324 324 324 323 322 322 322 322 322 321 319 316
287 283 281 292 293 293 296 302 304 305 308 309 311 312 313 317 318 319 319 322 322 320 318 317 318 317 315 314 316 319 323 324 323 325 326 325 323 323 322 320 320 318 317 316
287 286 293 293 296 302 302 301 302 304 306 311 311 311 312 314 317 320 321 321 322 319 317 316 317 318 315 315 315 320 323 323 325 326 326 325 324 322 320 319 320 319 319 318
290 293 293 298 301 302 303 302 304 307 307 309 309 310 310 312 312 315 319 322 322 319 317 315 315 317 317 315 317 325 323 323 325 326 323 325 325 324 321 319 319 319 319 315
290 295 297 299 300 302 303 305 304 306 307 309 309 310 310 311 312 315 319 320 324 320 318 317 316 317 318 317 321 324 323 324 325 325 324 323 319 319 323 322 321 321 321 320
288 296 296 297 301 303 303 303 305 305 306 309 309 307 309 310 312 314 316 318 321 321 320 319 318 317 319 317 323 323 322 324 325 324 323 320 314 310 298 300 299 303 308 316
293 298 298 300 303 304 304 305 306 306 308 307 308 308 308 308 311 312 316 316 317 320 322 321 319 318 321 318 324 324 322 324 324 323 323 316 312 313 311 307 297 298 300 303
301 300 297 300 300 304 306 306 307 306 307 307 307 308 307 308 311 314 314 317 318 322 324 322 320 319 321 319 323 324 323 311 325 325 324 319 315 312 312 312 314 313 299 301
299 302 301 303 303 303 305 305 304 304 305 306 308 308 308 306 308 312 315 318 322 324 323 323 321 320 321 320 321 323 324 323 325 326 324 320 319 314 312 311 313 312 307 302
300 301 301 301 301 301 301 302 302 303 304 304 305 307 309 310 308 312 314 319 319 318 319 321 323 323 323 320 320 321 323 314 316 323 323 321 321 319 315 313 311 312 315 315
295 296 297 299 299 299 299 300 302 302 303 303 305 308 308 307 308 310 312 319 318 316 313 312 317 320 325 321 321 321 322 318 314 321 321 322 321 321 320 317 315 312 315 312
299 300 302 298 300 300 299 301 301 301 302 304 306 306 305 304 305 309 308 308 308 307 307 311 309 314 313 311 313 319 320 320 319 320 318 320 320 321 320 321 319 315 313 310
299 300 301 302 302 300 301 301 299 301 301 302 302 301 302 303 304 305 306 305 301 301 303 309 302 306 311 306 305 315 318 319 319 319 318 310 313 316 319 320 321 320 317 314
299 301 301 302 302 300 298 301 300 299 299 299 300 299 299 300 301 302 301 300 300 297 300 306 306 306 307 306 303 321 319 317 316 317 316 314 312 313 314 308 319 321 319 317
301 301 300 300 299 300 299 299 298 298 298 298 297 297 296 297 298 299 296 295 297 296 299 304 303 303 305 304 312 316 322 323 317 316 315 313 314 312 312 313 315 317 321 319
301 300 300 300 299 298 299 298 298 298 298 297 298 297 295 294 294 295 296 294 296 291 296 299 301 296 297 299 314 315 315 322 322 321 316 315 315 313 313 314 314 315 316 318
300 302 301 300 300 298 300 299 298 298 297 296 296 295 294 293 293 292 290 294 293 291 296 294 290 288 290 305 309 312 312 314 320 321 321 321 319 317 316 315 315 315 315 315
299 300 299 300 300 298 296 297 298 297 297 297 296 296 294 292 293 294 294 292 289 289 292 290 289 288 291 301 302 303 309 306 308 316 320 309 322 322 322 321 320 316 314 309
299 299 298 298 297 295 295 296 296 296 296 295 295 295 295 295 293 292 292 292 289 290 291 289 288 289 295 297 299 300 303 299 298 304 307 308 311 314 319 321 322 319 318 317
298 298 297 297 296 295 295 294 292 293 293 292 293 293 293 294 294 292 292 290 292 290 291 291 290 291 292 294 295 296 297 296 295 298 298 299 301 303 306 309 310 316 315 315
299 297 299 298 296 296 295 293 292 291 292 292 291 292 292 293 292 291 289 290 290 291 291 290 290 289 290 291 292 293 294 293 291 293 294 294 296 296 298 303 306 308 305 307

GFSNGP_sfc_thetae_033.txt.gz
Theta_e
285 287 288 287 286 287 287 287 283 286 287 292 295 298 300 303 313 315 316 318 320 320 321 322 322 322 322 320 320 323 324 322 320 321 321 321 320 320 322 324 325 326 323 323
284 288 287 285 288 289 289 290 289 289 288 297 299 302 309 309 314 315 317 319 320 321 322 322 322 322 321 319 320 324 324 325 326 325 322 321 320 323 322 325 326 326 321 320
278 285 286 282 287 289 290 291 290 287 293 300 303 307 310 310 315 316 318 319 320 321 322 322 322 322 318 319 320 323 327 328 326 323 322 321 320 321 324 322 324 322 317 317
280 283 274 287 296 295 291 294 295 296 301 305 306 309 311 313 312 316 319 319 320 322 322 322 321 319 317 318 322 324 327 327 324 323 322 321 319 319 318 320 322 317 315 314
279 280 285 290 292 291 290 292 300 300 302 304 309 307 308 315 316 315 317 320 321 323 322 321 318 317 318 320 322 325 325 324 325 323 321 320 319 318 317 318 317 315 315 313
283 278 277 289 292 295 295 287 299 301 301 301 304 298 303 313 317 317 316 321 321 322 322 319 316 317 319 319 321 323 325 324 324 322 322 321 319 318 318 318 318 318 315 313
281 280 286 291 292 293 287 290 300 302 302 302 303 305 311 315 318 319 318 319 320 321 319 319 316 317 318 319 320 323 326 324 323 321 322 322 319 319 319 320 320 317 316 313
284 282 280 292 290 291 296 300 303 302 302 305 308 311 314 317 318 319 318 319 321 320 318 315 317 317 316 318 322 322 323 323 321 321 324 322 320 319 319 319 317 315 314 313
285 285 289 290 290 299 303 302 303 302 304 305 308 309 311 312 313 317 319 320 321 320 315 316 317 317 314 317 315 320 321 320 321 322 322 322 320 318 317 317 317 318 318 317
289 292 294 296 300 301 303 302 304 305 305 309 307 309 309 313 314 316 320 319 319 316 315 314 315 316 317 313 316 321 320 320 322 322 320 322 322 320 318 317 317 318 317 316
290 294 296 298 300 302 302 305 305 307 307 309 308 308 309 310 313 315 317 320 319 317 315 315 315 315 314 314 320 319 320 322 322 321 321 320 318 317 319 318 318 318 316 315
287 294 295 296 301 303 303 304 305 306 306 307 308 308 310 310 314 315 316 316 319 318 317 317 316 315 314 317 322 321 320 322 323 322 321 319 315 311 295 302 304 306 306 312
295 299 299 301 302 305 304 305 306 306 307 306 308 308 308 309 313 312 317 319 320 319 318 318 317 316 317 319 322 321 321 322 322 321 321 317 315 316 314 306 297 299 298 302
300 299 297 300 300 304 305 305 306 306 306 307 308 309 309 308 311 314 317 319 320 321 320 319 318 318 318 320 322 322 322 310 323 323 322 317 315 315 315 312 313 312 297 301
299 301 301 303 302 301 303 304 303 302 304 305 308 307 308 308 308 311 316 316 312 312 315 320 320 320 321 321 322 320 321 322 323 323 322 317 315 312 313 312 314 312 307 300
299 299 299 299 298 299 300 300 301 301 302 304 305 305 306 309 310 309 310 310 307 304 308 308 312 315 322 319 320 321 321 312 316 323 319 317 314 312 310 310 312 312 313 313
295 296 297 297 298 298 299 299 300 301 301 302 303 304 305 306 306 305 304 308 309 305 304 307 305 312 315 318 320 322 321 318 314 323 320 320 318 315 313 311 310 311 313 310
301 300 299 298 297 298 298 298 298 299 299 301 302 302 302 302 301 301 302 302 303 306 303 305 304 306 311 308 307 316 321 320 319 322 322 321 320 320 317 314 313 312 311 308
300 300 299 300 299 298 298 297 297 297 298 300 300 298 298 300 299 301 299 298 297 298 299 305 299 304 308 306 306 318 318 318 318 320 320 313 315 319 319 318 317 315 313 310
298 299 299 299 298 297 296 297 297 297 297 297 297 296 295 296 297 296 298 295 295 295 298 304 304 303 307 308 303 317 321 317 316 317 315 313 317 315 318 310 319 318 316 313
299 299 298 298 297 297 296 296 296 295 296 295 294 294 293 293 295 293 291 291 293 294 296 297 297 298 304 302 310 314 316 321 318 313 313 312 312 311 312 315 317 319 319 317
299 299 298 297 296 296 296 296 295 295 295 294 294 293 292 292 293 292 292 290 291 290 292 293 293 289 294 297 311 310 310 313 317 320 316 314 312 310 310 310 311 314 317 319
298 300 299 298 296 296 297 296 295 295 294 293 292 292 291 291 291 290 289 291 292 290 291 291 288 287 289 303 305 305 303 304 308 312 315 318 320 319 316 315 314 314 311 312
298 297 297 298 297 296 294 294 295 295 294 294 293 293 292 290 290 291 292 291 288 290 290 288 289 288 292 299 299 299 297 298 302 303 304 299 307 309 310 312 314 314 314 313
298 297 297 295 294 293 294 294 295 294 293 292 292 292 293 292 290 290 291 291 288 290 290 288 288 289 293 295 295 295 294 294 294 297 299 299 301 303 306 309 308 304 306 307
297 295 295 296 294 293 292 293 292 291 291 290 290 291 292 292 290 289 290 290 291 289 289 289 289 291 291 291 292 292 292 291 292 292 293 295 296 297 299 299 301 302 302 303
297 295 296 294 294 293 293 292 291 289 290 289 288 289 290 291 289 288 287 289 290 289 289 289 289 288 289 290 290 290 291 290 289 290 290 291 291 292 293 294 295 295 296 297